User: anonymous   Login
Location: Starry Hill Observatory
(46.8582°N, 122.3590°W)
Time: 02:50:00
(UTC-08:00)
Language:

Cosmos 1300 Rocket - Orbit

View from above orbital plane
View from above orbital plane
View from above satellite
View from above satellite

Ground track
Ground track

The orbit data is extracted from the following two-line orbital elements,

1 12786U 81082B   17017.23275580  .00000072  00000-0  56828-5 0  9994
2 12786  82.4899 109.9854 0018441  37.5153 322.7346 14.84662853912415
Epoch (UTC): 17 January 2017 05:35:10
Eccentricity: 0.0018441
inclination: 82.4899°
perigee height: 602 km
apogee height: 627 km
right ascension of ascending node: 109.9854°
argument of perigee: 37.5153°
revolutions per day: 14.84662853
mean anomaly at epoch: 322.7346°
orbit number at epoch: 91241

The dashed part of the orbit path shows where the satellite is in the earth's shadow,  

DLR